User: anonymous   Login
Location: Middelsbur
(53.6609°N, 7.5020°E)
Time: 14:08:38
(UTC+00:00)
Language:

Cosmos 2344 - Orbit

View from above orbital plane
View from above orbital plane
View from above satellite
View from above satellite

Ground track
Ground track

The orbit data is extracted from the following two-line orbital elements,

1 24827U 97028A   20274.94844367 -.00000171  00000-0 -15352-2 0  9998
2 24827  63.3123  99.6570 1028428  43.2845  38.3485 11.07915138943654
Epoch (UTC): 30 September 2020 22:45:45
Eccentricity: 0.1028428
inclination: 63.3123°
perigee height: 1247 km
apogee height: 2995 km
right ascension of ascending node: 99.6570°
argument of perigee: 43.2845°
revolutions per day: 11.07915138
mean anomaly at epoch: 38.3485°
orbit number at epoch: 94365

The dashed part of the orbit path shows where the satellite is in the earth's shadow,  

DLR